This is the latest recevied weather packets stored in our database for station/object KC0SIQ-13. If no packets are shown the sender has not sent any weather packets the latest 10 day(s).
| Time | Temp. | Humidity | Pressure | Rain* | Wind** | Luminosity | Snow |
|---|---|---|---|---|---|---|---|
| 1777823006 | 17.78° C | 28% | 1013.4 hPa | 0 mm | - | 109 W/m² | - |
| 1777822703 | 17.78° C | 28% | 1013.4 hPa | 0 mm | - | 98 W/m² | - |
| 1777822401 | 17.22° C | 30% | 1013.7 hPa | 0 mm | - | 86 W/m² | - |
| 1777822098 | 16.67° C | 31% | 1013.4 hPa | 0 mm | - | 79 W/m² | - |
| 1777821796 | 16.67° C | 32% | 1013.5 hPa | 0 mm | - | 81 W/m² | - |
| 1777821493 | 16.11° C | 33% | 1013.7 hPa | 0 mm | - | 71 W/m² | - |
| 1777821191 | 15.56° C | 33% | 1013.4 hPa | 0 mm | - | 64 W/m² | - |
| 1777820888 | 15.56° C | 33% | 1013.5 hPa | 0 mm | - | 58 W/m² | - |
| 1777820583 | 15.56° C | 35% | 1013.8 hPa | 0 mm | - | 58 W/m² | - |
| 1777820280 | 16.11° C | 34% | 1013.7 hPa | 0 mm | - | 64 W/m² | - |
| 1777819978 | 15.56° C | 34% | 1013.5 hPa | 0 mm | - | 62 W/m² | - |
| 1777819675 | 15.56° C | 35% | 1013.8 hPa | 0 mm | - | 122 W/m² | - |
| 1777819373 | 15° C | 34% | 1013.8 hPa | 0 mm | - | 379 W/m² | - |
| 1777819070 | 14.44° C | 36% | 1013.8 hPa | 0 mm | - | 347 W/m² | - |
| 1777818767 | 14.44° C | 37% | 1013.8 hPa | 0 mm | - | 296 W/m² | - |
| 1777818463 | 13.33° C | 38% | 1013.8 hPa | 0 mm | - | 275 W/m² | - |
| 1777818160 | 12.78° C | 39% | 1013.9 hPa | 0 mm | - | 251 W/m² | - |
| 1777817856 | 12.22° C | 39% | 1013.9 hPa | 0 mm | - | 212 W/m² | - |
| 1777817554 | 12.22° C | 40% | 1013.8 hPa | 0 mm | - | 123 W/m² | - |
| 1777817251 | 11.67° C | 40% | 1014.1 hPa | 0 mm | - | 45 W/m² | - |
| 1777816948 | 11.11° C | 42% | 1013.7 hPa | 0 mm | - | 48 W/m² | - |
| 1777816644 | 11.11° C | 42% | 1014 hPa | 0 mm | - | 40 W/m² | - |
| 1777816341 | 10.56° C | 42% | 1014 hPa | 0 mm | - | 43 W/m² | - |
| 1777816039 | 10.56° C | 45% | 1014 hPa | 0 mm | - | 35 W/m² | - |
| 1777815736 | 10° C | 45% | 1014 hPa | 0 mm | - | 34 W/m² | - |
* Rain latest hour (hover to see other rain measurements)
** Current wind speed in m/s (hover to see current wind gust speed)